Weather History for KNEW - January, 2013

Change the Weather History Date:

Saturday, January 12, 2013

  Actual Average Record
Temperature  
Mean Temperature 73 °F 53 °F  
Max Temperature 78 °F 62 °F 80 °F (1989)
Min Temperature 68 °F 44 °F 17 °F (1962)
Degree Days  
Heating Degree Days 0 12  
Month to date heating degree days 106 144  
Since 1 July heating degree days 514 625  
Cooling Degree Days 8 0  
Month to date cooling degree days 16 10  
Year to date cooling degree days 16 10  
Growing Degree Days 26 (Base 50)    
Moisture  
Dew Point 68 °F    
Average Humidity 84    
Maximum Humidity 100    
Minimum Humidity 67    
Precipitation  
Precipitation 0.00 in 0.17 in 3.84 in (1998)
Month to date precipitation 4.15 1.97  
Year to date precipitation 4.15 1.97  
Snow  
Snow 0.00 in - - ()
Month to date snowfall 0.0  
Since 1 July snowfall 0.0  
Snow Depth 0.00 in    
Sea Level Pressure  
Sea Level Pressure 30.00 in    
Wind  
Wind Speed 11 mph (SSE)    
Max Wind Speed 20 mph    
Max Gust Speed 24 mph    
Visibility 4 miles    
Events Fog    
T = Trace of Precipitation, MM = Missing Value Source: NWS Daily Summary

Daily Weather History Graph

Daily Weather History Graph

Search for Another Location

Airport or City:

Trip Planner

Search our weather history database for the weather conditions in past years. The results will help you decide how hot, cold, wet, or windy it might be!

Date:

Astronomy

Jan. 12, 2013 Rise Set
Actual Time 6:57 AM CST 5:20 PM CST
Civil Twilight 6:31 AM CST 5:46 PM CST
Nautical Twilight 6:01 AM CST 6:15 PM CST
Astronomical Twilight 5:32 AM CST 6:44 PM CST
Moon 7:23 AM CST (1/12) 6:40 PM CST (1/12)
Length of Visible Light 11h 15m
Length of Day
10h 23m
New Moon, 1% of the Moon is Illuminated
Jan 12
New Moon
Jan 18
First Quarter
Jan 26
Full
Feb 3
Last Quarter
Feb 10
New

Hourly Weather History & Observations

Time (CST) Temp. Heat Index Dew Point Humidity Pressure Visibility Wind Dir Wind Speed Gust Speed Precip Events Conditions
12:16 AM 73.4 °F - 69.8 °F 88% 30.04 in 1.0 mi SSE 11.5 mph - N/A   Overcast
12:31 AM 73.4 °F - 69.8 °F 88% 30.04 in 3.0 mi South 12.7 mph - N/A   Overcast
12:53 AM 73.0 °F - 68.0 °F 84% 30.02 in 5.0 mi SSE 10.4 mph - N/A   Haze
1:39 AM 73.4 °F - 69.8 °F 88% 30.05 in 2.0 mi South 11.5 mph - N/A   Overcast
1:53 AM 73.0 °F - 69.1 °F 87% 30.02 in 3.0 mi SSE 11.5 mph - N/A   Overcast
2:39 AM 71.6 °F - 68.0 °F 88% 30.04 in 1.8 mi SSE 11.5 mph - N/A   Overcast
2:53 AM 72.0 °F - 66.9 °F 84% 30.01 in 0.8 mi SSE 13.8 mph - N/A   Haze
3:11 AM 71.6 °F - 66.2 °F 83% 30.03 in 0.2 mi SSE 12.7 mph - N/A Fog Fog
3:27 AM 71.6 °F - 66.2 °F 83% 30.03 in 0.2 mi SSE 12.7 mph - N/A   Haze
3:35 AM 71.6 °F - 68.0 °F 88% 30.02 in 0.2 mi SSE 12.7 mph - N/A Fog Fog
3:53 AM 72.0 °F - 68.0 °F 87% 30.00 in 0.2 mi SSE 11.5 mph - N/A Fog Fog
4:09 AM 71.6 °F - 68.0 °F 88% 30.02 in 0.5 mi SSE 10.4 mph - N/A Fog Fog
4:53 AM 72.0 °F - 68.0 °F 87% 29.99 in 0.5 mi SSE 8.1 mph - N/A Fog Fog
5:18 AM 71.6 °F - 68.0 °F 88% 30.02 in 0.2 mi SSE 9.2 mph - N/A Fog Fog
5:27 AM 71.6 °F - 68.0 °F 88% 30.02 in 0.2 mi SE 5.8 mph - N/A Fog Fog
5:53 AM 72.0 °F - 68.0 °F 87% 30.01 in 0.2 mi SE 6.9 mph - N/A Fog Fog
6:53 AM 70.0 °F - 66.0 °F 87% 30.02 in 0.2 mi SE 8.1 mph - N/A Fog Fog
7:53 AM 72.0 °F - 68.0 °F 87% 30.05 in 0.2 mi SE 6.9 mph - N/A Fog Fog
8:53 AM 73.0 °F - 68.0 °F 84% 30.05 in 0.2 mi SE 9.2 mph - N/A   Haze
9:32 AM 73.4 °F - 69.8 °F 88% 30.07 in 0.5 mi SE 10.4 mph - N/A Fog Fog
9:44 AM 73.4 °F - 69.8 °F 88% 30.07 in 1.2 mi SSE 11.5 mph - N/A   Overcast
9:53 AM 73.0 °F - 69.1 °F 87% 30.04 in 1.8 mi SSE 12.7 mph - N/A   Overcast
10:01 AM 73.4 °F - 69.8 °F 88% 30.06 in 3.0 mi SE 12.7 mph - N/A   Overcast
10:53 AM 75.0 °F - 69.1 °F 82% 30.03 in 3.0 mi SSE 11.5 mph - N/A   Haze
11:36 AM 75.2 °F - 69.8 °F 83% 30.02 in 8.0 mi SSE 13.8 mph - N/A   Partly Cloudy
11:53 AM 79.0 °F - 69.1 °F 72% 29.99 in 9.0 mi SSE 15.0 mph - N/A   Mostly Cloudy
12:53 PM 81.0 °F 83.3 °F 66.9 °F 62% 29.97 in 10.0 mi South 15.0 mph - N/A   Partly Cloudy
1:53 PM 82.0 °F 84.1 °F 66.0 °F 58% 29.96 in 10.0 mi South 16.1 mph 23.0 mph N/A   Mostly Cloudy
2:53 PM 81.0 °F 82.7 °F 64.9 °F 58% 29.95 in 10.0 mi South 18.4 mph - N/A   Partly Cloudy
3:53 PM 79.0 °F - 64.0 °F 60% 29.94 in 10.0 mi South 17.3 mph 25.3 mph N/A   Partly Cloudy
4:53 PM 77.0 °F - 66.0 °F 69% 29.95 in 10.0 mi SSE 11.5 mph - N/A   Mostly Cloudy
5:53 PM 75.0 °F - 66.0 °F 73% 29.94 in 10.0 mi SE 9.2 mph - N/A   Clear
6:53 PM 73.9 °F - 66.0 °F 76% 29.94 in 10.0 mi SE 10.4 mph - N/A   Partly Cloudy
7:53 PM 72.0 °F - 66.0 °F 81% 29.93 in 9.0 mi SE 6.9 mph - N/A   Partly Cloudy
8:53 PM 73.0 °F - 66.0 °F 79% 29.93 in 10.0 mi SE 9.2 mph - N/A   Partly Cloudy
9:53 PM 73.0 °F - 66.9 °F 81% 29.93 in 8.0 mi SE 10.4 mph - N/A   Mostly Cloudy
10:31 PM 73.4 °F - 68.0 °F 83% 29.94 in 7.0 mi SE 9.2 mph - N/A   Partly Cloudy
10:53 PM 73.9 °F - 68.0 °F 82% 29.93 in 8.0 mi SSE 12.7 mph - N/A   Scattered Clouds
11:35 PM 73.4 °F - 69.8 °F 88% 29.94 in 8.0 mi SSE 10.4 mph - N/A   Overcast
11:53 PM 73.9 °F - 69.1 °F 85% 29.92 in 7.0 mi SSE 12.7 mph - N/A   Overcast